[[{"header":{"parameterUnit":"m.s-1","parameterCategory":2,"la1":30.2991,"la2":30.254,"lo1":-89.0895,"lo2":-89.0444,"dy":0.0017,"dx":0.0017,"nx":28,"ny":28,"refTime":"2024-07-31T21:00:00:Z","depth":"0","parameterNumber":2,"parameterNumberName":"U-component_of_CURRENTS"},"data":[0,0,0,0,0,0,0,0,0,0,0,0,0,0,0,0,0,0,0,0,0,0,0,0,0,0,0,0,0,0,0,0,0,0,0,0,0,0,0,0,0,0,0,0,0,0,0,0,0,0,0,0,0,0,0,0,0,0,-0.1211,-0.1211,0,-0.1246,-0.1247,-0.1247,-0.1213,-0.1212,-0.121,-0.1209,-0.1164,-0.1164,-0.1164,0,0,0,0,0,0,0,0,0,0,0,0,0,-0.1225,-0.1224,-0.1211,-0.1211,-0.1211,-0.1246,-0.1247,-0.1247,-0.1214,-0.1212,-0.121,-0.1208,-0.1164,-0.1164,-0.1164,0,0,0,0,0,0,0,0,0,0,0,0,0,-0.1237,-0.1224,-0.121,-0.1197,-0.1196,-0.1246,-0.1247,-0.1248,-0.1214,-0.1212,-0.1209,-0.1207,-0.1164,-0.1164,-0.1164,-0.1212,0,0,-0.1165,-0.1166,0,0,0,0,0,0,0,0,-0.1236,-0.1236,-0.1199,-0.1198,-0.1197,-0.1222,-0.1235,-0.1231,-0.1215,-0.1209,-0.1209,-0.1206,-0.1176,-0.1176,-0.1191,-0.121,-0.1208,-0.1165,-0.1166,-0.1166,-0.1166,0,0,0,0,0,0,0,-0.1235,-0.1235,-0.1226,-0.1199,-0.1198,-0.1228,-0.1226,-0.1235,-0.1205,-0.1209,-0.1207,-0.1209,-0.1175,-0.1191,-0.1189,-0.1207,-0.1165,-0.1166,-0.1166,-0.1166,-0.126,-0.1262,0,0,0,0,0,0,-0.1224,-0.1234,-0.1225,-0.1227,-0.121,-0.1229,-0.1227,-0.1217,-0.1206,-0.1203,-0.1211,-0.1207,-0.1191,-0.1189,-0.1187,-0.1223,-0.1166,-0.1166,-0.1166,-0.1258,-0.126,-0.1263,0,0,0,0,0,0,-0.1224,-0.1222,-0.1224,-0.1231,-0.1233,-0.123,-0.122,-0.1219,-0.1221,-0.1208,-0.1202,-0.1211,-0.1189,-0.1187,-0.1209,-0.1221,-0.1166,-0.1167,-0.1255,-0.1258,-0.1262,-0.1307,0,0,0,0,0,0,-0.1224,-0.1222,-0.1211,-0.123,-0.1232,-0.1247,-0.1222,-0.1222,-0.1226,-0.1221,-0.1207,-0.1201,-0.1187,-0.1209,-0.1209,-0.1221,-0.1167,-0.1252,-0.1256,-0.126,-0.1303,-0.1312,-0.1319,0,0,0,0,0,-0.1224,-0.1214,-0.121,-0.1209,-0.1216,-0.1247,-0.1252,-0.1244,-0.1228,-0.1236,-0.124,-0.1201,-0.1236,-0.1212,-0.1211,-0.1223,-0.125,-0.1255,-0.126,-0.1299,-0.131,-0.1319,0,0,0,0,0,0,-0.1213,-0.1211,-0.1206,-0.1194,-0.1217,-0.124,-0.1243,-0.1247,-0.126,-0.125,-0.1235,-0.1232,-0.1256,-0.1246,-0.122,-0.1268,-0.1235,-0.124,-0.1265,-0.1275,-0.1283,-0.1246,-0.1167,0,0,0,0,0,-0.1208,-0.1194,-0.1214,-0.1204,-0.1214,-0.1232,-0.1242,-0.1245,-0.126,-0.1262,-0.126,-0.1265,-0.1284,-0.1282,-0.1296,-0.1323,-0.1288,-0.1333,-0.1341,-0.1348,-0.1321,-0.1334,-0.1339,-0.128,-0.128,-0.128,0,0,-0.1198,-0.1197,-0.1187,-0.1201,-0.1214,-0.1242,-0.1232,-0.1249,-0.127,-0.1257,-0.1279,-0.1294,-0.1302,-0.1335,-0.1343,-0.1321,-0.1343,-0.1354,-0.136,-0.1329,-0.134,-0.1345,-0.1349,-0.1283,-0.1283,-0.1282,0,0,-0.1186,-0.1176,-0.117,-0.1196,-0.122,-0.1241,-0.1246,-0.1278,-0.1283,-0.1326,-0.1322,-0.135,-0.1375,-0.1386,-0.1394,-0.146,-0.1393,-0.1462,-0.1463,-0.1477,-0.148,-0.1483,-0.142,-0.1417,-0.1459,-0.1459,-0.146,0,-0.1178,-0.1167,-0.1178,-0.1197,-0.1208,-0.1241,-0.1256,-0.1288,-0.1325,-0.1325,-0.1334,-0.1386,-0.14,-0.1428,-0.1455,-0.1474,-0.144,-0.142,-0.1483,-0.1486,-0.1488,-0.1423,-0.1419,-0.1462,-0.1462,-0.1462,-0.1461,0,-0.1176,-0.1174,-0.1178,-0.1204,-0.1228,-0.1247,-0.1292,-0.1314,-0.1333,-0.1358,-0.1392,-0.1436,-0.1451,-0.148,-0.1486,-0.1512,-0.1466,-0.1496,-0.1447,-0.1496,-0.1425,-0.142,-0.1466,-0.1465,-0.1464,-0.1464,0,0,-0.1138,-0.1165,-0.1167,-0.1165,-0.1227,-0.1237,-0.1283,-0.1314,-0.1314,-0.138,-0.1384,-0.1459,-0.1466,-0.1477,-0.1498,-0.1517,-0.1516,-0.1506,-0.1505,-0.142,-0.1478,-0.1232,-0.1201,-0.1554,-0.1554,-0.1554,-0.1411,0,-0.113,-0.114,-0.1165,-0.1178,-0.1186,-0.1228,-0.1254,-0.1291,-0.1328,-0.1351,-0.1407,-0.1428,-0.1471,-0.1471,-0.1509,-0.1534,-0.1508,-0.1546,-0.1461,-0.1456,-0.1215,-0.119,-0.1062,-0.0905,-0.1406,-0.1405,-0.1404,0,-0.112,-0.1122,-0.1128,-0.1129,-0.1133,-0.1154,-0.1168,-0.1201,-0.1258,-0.1277,-0.1326,-0.1365,-0.1419,-0.1446,-0.1481,-0.1501,-0.1468,-0.1475,-0.1471,-0.1213,-0.12,-0.0946,-0.0877,-0.0898,-0.1396,-0.1396,-0.1397,0,-0.1071,-0.1088,-0.1075,-0.1089,-0.1118,-0.111,-0.1123,-0.117,-0.1175,-0.1226,-0.1227,-0.1309,-0.1327,-0.1366,-0.1372,-0.1432,-0.136,-0.1457,-0.118,-0.1161,-0.1014,-0.0979,-0.093,-0.1413,-0.1413,-0.1414,-0.1414,0,-0.1047,-0.1036,-0.1044,-0.1043,-0.1009,-0.1051,-0.1031,-0.1053,-0.1088,-0.108,-0.1176,-0.1168,-0.1309,-0.1293,-0.1324,-0.1191,-0.1314,-0.113,-0.1102,-0.1021,-0.0991,-0.097,-0.112,-0.1408,-0.141,-0.1411,-0.1412,0,-0.1004,-0.1019,-0.0996,-0.0995,-0.099,-0.0966,-0.0964,-0.0954,-0.0986,-0.0981,-0.0987,-0.1059,-0.1029,-0.1073,-0.1096,-0.1065,-0.098,-0.0902,-0.074,-0.0692,-0.0474,-0.0633,-0.0585,-0.0554,-0.0617,-0.061,-0.0604,0,-0.098,-0.0965,-0.0945,-0.0925,-0.0922,-0.0898,-0.0882,-0.0902,-0.0896,-0.0896,-0.0882,-0.0842,-0.0787,-0.0681,-0.0625,-0.0531,-0.0674,-0.0313,-0.041,-0.0378,-0.0541,-0.0691,-0.0685,-0.0246,-0.0238,-0.0231,-0.0225,0,-0.0921,-0.0914,-0.0897,-0.0859,-0.0831,-0.0794,-0.0772,-0.0749,-0.0765,-0.0734,-0.0672,-0.0617,-0.0465,-0.0317,-0.0129,-0.0082,-0.0338,-0.0159,-0.0223,-0.0284,-0.0359,-0.0341,-0.0391,-0.0164,-0.017,-0.0175,-0.0178,-0.0181,-0.0866,-0.0837,-0.0816,-0.0777,-0.0746,-0.0694,-0.0647,-0.0624,-0.0567,-0.0501,-0.0475,-0.0332,-0.013,0.0133,0.0222,0.0415,0.0142,0.0376,0.0174,0.002,0.007,0.0243,0.0561,0.0559,0.0557,0.0556,0.0554,0,-0.0787,-0.0769,-0.0733,-0.0682,-0.0629,-0.0636,-0.0575,-0.0523,-0.0435,-0.033,-0.0227,0.0061,0.0313,0.0471,0.071,0.0716,0.0605,0.0634,0.0361,0.0346,0.0454,0.0499,0.0936,0.0936,0.0936,0.0936,0.0936,0.0936,-0.0744,-0.0693,-0.0684,-0.0584,-0.0553,-0.0466,-0.0424,-0.0352,-0.0262,-0.006,0.0117,0.0257,0.0435,0.0568,0.0721,0.073,0.052,0.0496,0.0361,0.0334,0.029,0.0248,0.0265,0.0645,0.0644,0.0362,0.0359,0.0356]},{"header":{"parameterUnit":"m.s-1","parameterCategory":2,"la1":30.2991,"la2":30.254,"lo1":-89.0895,"lo2":-89.0444,"dy":0.0017,"dx":0.0017,"nx":28,"ny":28,"refTime":"2024-07-31T21:00:00:Z","depth":"0","parameterNumber":3,"parameterNumberName":"V-component_of_CURRENTS"},"data":[0,0,0,0,0,0,0,0,0,0,0,0,0,0,0,0,0,0,0,0,0,0,0,0,0,0,0,0,0,0,0,0,0,0,0,0,0,0,0,0,0,0,0,0,0,0,0,0,0,0,0,0,0,0,0,0,0,0,-0.052,-0.052,0,-0.0505,-0.0504,-0.0504,-0.0448,-0.0447,-0.0446,-0.0445,-0.0406,-0.0406,-0.0406,0,0,0,0,0,0,0,0,0,0,0,0,0,-0.047,-0.0472,-0.052,-0.052,-0.052,-0.0505,-0.0504,-0.0504,-0.0448,-0.0447,-0.0446,-0.0444,-0.0406,-0.0406,-0.0406,0,0,0,0,0,0,0,0,0,0,0,0,0,-0.0474,-0.0472,-0.052,-0.0493,-0.0491,-0.0505,-0.0504,-0.0504,-0.0448,-0.0447,-0.0445,-0.0444,-0.0406,-0.0406,-0.0406,-0.0434,0,0,-0.0405,-0.0405,0,0,0,0,0,0,0,0,-0.0474,-0.0476,-0.0497,-0.0495,-0.0492,-0.0479,-0.0472,-0.048,-0.0449,-0.0461,-0.0445,-0.0443,-0.0431,-0.0429,-0.0425,-0.0432,-0.0431,-0.0405,-0.0405,-0.0405,-0.0405,0,0,0,0,0,0,0,-0.0474,-0.0476,-0.0511,-0.0497,-0.0494,-0.0471,-0.047,-0.0473,-0.0452,-0.046,-0.0457,-0.046,-0.0429,-0.0426,-0.0424,-0.043,-0.0405,-0.0405,-0.0405,-0.0405,-0.0437,-0.0438,0,0,0,0,0,0,-0.0486,-0.0476,-0.0511,-0.0511,-0.0483,-0.0474,-0.0472,-0.0482,-0.0452,-0.0447,-0.0462,-0.0458,-0.0427,-0.0424,-0.0422,-0.0449,-0.0405,-0.0405,-0.0405,-0.0436,-0.0437,-0.0438,0,0,0,0,0,0,-0.0485,-0.049,-0.0512,-0.0495,-0.0496,-0.0477,-0.0488,-0.0483,-0.0476,-0.0454,-0.0448,-0.046,-0.0425,-0.0423,-0.0421,-0.0447,-0.0405,-0.0404,-0.0435,-0.0436,-0.0438,-0.0507,0,0,0,0,0,0,-0.0484,-0.0489,-0.0499,-0.0496,-0.0498,-0.0531,-0.049,-0.0484,-0.0482,-0.0477,-0.0451,-0.0446,-0.0424,-0.0422,-0.0421,-0.0446,-0.0404,-0.0434,-0.0436,-0.0437,-0.0503,-0.051,-0.0516,0,0,0,0,0,-0.0482,-0.0505,-0.0499,-0.0503,-0.0512,-0.0533,-0.0532,-0.051,-0.0484,-0.0494,-0.0466,-0.0447,-0.0433,-0.0423,-0.0422,-0.0447,-0.0433,-0.0435,-0.0437,-0.05,-0.0509,-0.0516,0,0,0,0,0,0,-0.0481,-0.0502,-0.0495,-0.0521,-0.0531,-0.0525,-0.0533,-0.0517,-0.0504,-0.0493,-0.046,-0.0454,-0.0462,-0.0447,-0.0437,-0.0461,-0.043,-0.0432,-0.0479,-0.0486,-0.0493,-0.0522,-0.0404,0,0,0,0,0,-0.049,-0.0516,-0.0526,-0.0547,-0.0555,-0.0544,-0.0547,-0.0537,-0.0527,-0.0519,-0.0502,-0.0482,-0.0473,-0.0472,-0.0463,-0.0483,-0.0439,-0.0498,-0.0505,-0.051,-0.0533,-0.0503,-0.0509,-0.0445,-0.0445,-0.0445,0,0,-0.0493,-0.051,-0.0521,-0.0549,-0.0551,-0.0584,-0.0542,-0.0558,-0.0576,-0.052,-0.0534,-0.0506,-0.0482,-0.0496,-0.0499,-0.0486,-0.0492,-0.0513,-0.0518,-0.0538,-0.0506,-0.0512,-0.0518,-0.0447,-0.0446,-0.0446,0,0,-0.0526,-0.0532,-0.0568,-0.0587,-0.0608,-0.061,-0.0618,-0.0621,-0.0611,-0.0626,-0.0584,-0.057,-0.0568,-0.0551,-0.0543,-0.0584,-0.0526,-0.0583,-0.0646,-0.0616,-0.0621,-0.0626,-0.052,-0.0515,-0.059,-0.059,-0.059,0,-0.0526,-0.0577,-0.058,-0.0624,-0.0645,-0.0628,-0.067,-0.067,-0.0669,-0.0671,-0.0641,-0.0626,-0.0596,-0.0611,-0.062,-0.0601,-0.0552,-0.0616,-0.0625,-0.0629,-0.0632,-0.0523,-0.0516,-0.0593,-0.0593,-0.0593,-0.0592,0,-0.059,-0.0632,-0.0656,-0.071,-0.0732,-0.0766,-0.0775,-0.0787,-0.0771,-0.0766,-0.077,-0.0726,-0.0718,-0.0704,-0.0675,-0.0692,-0.0634,-0.0632,-0.0605,-0.0642,-0.0525,-0.0516,-0.0599,-0.0597,-0.0596,-0.0595,0,0,-0.0591,-0.0683,-0.0693,-0.0727,-0.078,-0.08,-0.0846,-0.0876,-0.089,-0.0884,-0.0897,-0.0877,-0.0846,-0.0835,-0.0792,-0.0768,-0.0715,-0.0721,-0.0718,-0.0616,-0.0596,-0.0572,-0.0559,-0.0722,-0.0722,-0.0722,-0.0484,0,-0.0639,-0.0734,-0.0771,-0.085,-0.0894,-0.0908,-0.0944,-0.0966,-0.0966,-0.0975,-0.0939,-0.093,-0.0898,-0.0878,-0.0861,-0.0763,-0.0707,-0.0777,-0.0577,-0.057,-0.0546,-0.0555,-0.0521,-0.031,-0.0475,-0.0473,-0.0472,0,-0.069,-0.0748,-0.084,-0.0912,-0.093,-0.0972,-0.1018,-0.1049,-0.1066,-0.1059,-0.1067,-0.1031,-0.1003,-0.0958,-0.0831,-0.088,-0.0751,-0.0661,-0.065,-0.0611,-0.0534,-0.0312,-0.0288,-0.0146,-0.0458,-0.0459,-0.046,0,-0.0686,-0.0791,-0.0862,-0.0892,-0.0974,-0.1007,-0.1039,-0.1074,-0.1077,-0.1109,-0.1096,-0.1088,-0.1027,-0.0947,-0.0776,-0.0803,-0.0598,-0.0601,-0.0441,-0.0433,-0.0359,-0.0347,-0.0186,-0.0492,-0.0493,-0.0494,-0.0494,0,-0.0726,-0.0774,-0.0863,-0.0904,-0.0956,-0.1012,-0.1054,-0.1085,-0.1107,-0.1097,-0.113,-0.1089,-0.1024,-0.0905,-0.0783,-0.0582,-0.0594,-0.0452,-0.0394,-0.0375,-0.0368,-0.0208,-0.0166,-0.0485,-0.0487,-0.0488,-0.049,0,-0.0709,-0.0779,-0.0849,-0.094,-0.0961,-0.0992,-0.1038,-0.1057,-0.1089,-0.1075,-0.1077,-0.1051,-0.0924,-0.0815,-0.0622,-0.0542,-0.0288,-0.0281,-0.0233,-0.0178,0.002,0.0055,0.0224,0.0314,-0.0106,-0.0104,-0.0103,0,-0.0704,-0.075,-0.0848,-0.0873,-0.0915,-0.0962,-0.0983,-0.1035,-0.1038,-0.1026,-0.0997,-0.0905,-0.0822,-0.0565,-0.0428,-0.0222,-0.0127,-0.0044,-0.0127,0.0032,0.0116,0.011,0.0173,0.0001,0.0003,0.0005,0.0006,0,-0.0679,-0.0719,-0.0775,-0.0831,-0.0868,-0.0901,-0.0932,-0.0925,-0.0959,-0.0935,-0.0858,-0.0802,-0.0614,-0.0442,-0.0226,-0.009,0.002,-0.0004,0.0139,0.0178,0.0203,0.032,-0.0097,0.0022,0.002,0.0019,0.0018,0.0018,-0.0628,-0.0653,-0.0724,-0.0768,-0.0803,-0.0818,-0.0815,-0.082,-0.0793,-0.0718,-0.0701,-0.0574,-0.0433,-0.0175,-0.0013,0.0262,0.0191,0.0332,0.0368,0.0352,0.0391,0.002,0.019,0.0189,0.0189,0.0188,0.0188,0,-0.0562,-0.0601,-0.0646,-0.0699,-0.0709,-0.0753,-0.0753,-0.0719,-0.0644,-0.0566,-0.0473,-0.0275,-0.007,0.0121,0.0411,0.0603,0.0648,0.0706,0.0724,0.0776,0.0458,0.0411,0.0658,0.0658,0.0658,0.0658,0.0658,0.0658,-0.0526,-0.055,-0.0589,-0.0589,-0.0617,-0.0605,-0.0591,-0.0528,-0.0456,-0.0268,-0.0127,-0.0021,0.0184,0.0507,0.0873,0.0957,0.1124,0.1084,0.1175,0.0974,0.0942,0.0912,0.0879,0.122,0.1221,0.1486,0.1488,0.1491]}],[{"header":{"parameterUnit":"m.s-1","parameterCategory":2,"la1":30.2991,"la2":30.254,"lo1":-89.0895,"lo2":-89.0444,"dy":0.0017,"dx":0.0017,"nx":28,"ny":28,"refTime":"2024-07-31T21:00:00:Z","depth":"2","parameterNumber":2,"parameterNumberName":"U-component_of_CURRENTS"},"data":[0,0,0,0,0,0,0,0,0,0,0,0,0,0,0,0,0,0,0,0,0,0,0,0,0,0,0,0,0,0,0,0,0,0,0,0,0,0,0,0,0,0,0,0,0,0,0,0,0,0,0,0,0,0,0,0,0,0,-0.2231,-0.2233,0,-0.2498,-0.2501,-0.2504,-0.2557,-0.2555,-0.2553,-0.2551,-0.2555,-0.2557,-0.2559,0,0,0,0,0,0,0,0,0,0,0,0,0,-0.1982,-0.1985,-0.223,-0.2234,-0.2237,-0.2497,-0.2501,-0.2505,-0.2557,-0.2555,-0.2552,-0.255,-0.2555,-0.2557,-0.256,0,0,0,0,0,0,0,0,0,0,0,0,0,-0.2153,-0.1986,-0.223,-0.2294,-0.2303,-0.2497,-0.2501,-0.2506,-0.2558,-0.2555,-0.2552,-0.2549,-0.2554,-0.2557,-0.256,-0.2643,0,0,-0.257,-0.2571,0,0,0,0,0,0,0,0,-0.2143,-0.2162,-0.2282,-0.229,-0.23,-0.249,-0.2416,-0.2538,-0.2559,-0.2461,-0.2551,-0.2547,-0.2511,-0.2518,-0.2579,-0.2643,-0.2643,-0.257,-0.2572,-0.2573,-0.2574,0,0,0,0,0,0,0,-0.2131,-0.2152,-0.2336,-0.2285,-0.2297,-0.2384,-0.2403,-0.2441,-0.2496,-0.247,-0.2474,-0.2504,-0.2514,-0.2577,-0.2579,-0.2643,-0.257,-0.2573,-0.2574,-0.2576,-0.2645,-0.2645,0,0,0,0,0,0,-0.209,-0.2141,-0.2328,-0.2344,-0.2212,-0.239,-0.2412,-0.2433,-0.2502,-0.2511,-0.2507,-0.2506,-0.2573,-0.2575,-0.2579,-0.2561,-0.2573,-0.2576,-0.2578,-0.2645,-0.2645,-0.2645,0,0,0,0,0,0,-0.2084,-0.2104,-0.2317,-0.2249,-0.2282,-0.2396,-0.2421,-0.244,-0.2492,-0.2533,-0.2536,-0.2537,-0.257,-0.2574,-0.26,-0.2565,-0.2577,-0.258,-0.2645,-0.2645,-0.2645,-0.26,0,0,0,0,0,0,-0.2075,-0.21,-0.2126,-0.2245,-0.2284,-0.2392,-0.2425,-0.2447,-0.2516,-0.2517,-0.2561,-0.2559,-0.2568,-0.2595,-0.2603,-0.2569,-0.2583,-0.2645,-0.2645,-0.2645,-0.2602,-0.2599,-0.2596,0,0,0,0,0,-0.2066,-0.208,-0.2125,-0.215,-0.2307,-0.2392,-0.2419,-0.2492,-0.252,-0.2531,-0.2573,-0.2557,-0.2598,-0.26,-0.2608,-0.2574,-0.2645,-0.2645,-0.2645,-0.2603,-0.2599,-0.2596,0,0,0,0,0,0,-0.1989,-0.2092,-0.2142,-0.2191,-0.2274,-0.2399,-0.2442,-0.2497,-0.2555,-0.2563,-0.2585,-0.2587,-0.2599,-0.2603,-0.2604,-0.2594,-0.2608,-0.261,-0.2574,-0.257,-0.2568,-0.2504,-0.2585,0,0,0,0,0,-0.1989,-0.2021,-0.2135,-0.2177,-0.222,-0.2341,-0.2398,-0.245,-0.2515,-0.2542,-0.2569,-0.2594,-0.2616,-0.2604,-0.2637,-0.2641,-0.2615,-0.2617,-0.2614,-0.2611,-0.2566,-0.2572,-0.2565,-0.2644,-0.2644,-0.2644,0,0,-0.1981,-0.2037,-0.2065,-0.2164,-0.2248,-0.2289,-0.2365,-0.2445,-0.246,-0.253,-0.2554,-0.2607,-0.2625,-0.2631,-0.263,-0.2617,-0.2566,-0.2611,-0.2608,-0.2563,-0.2571,-0.2563,-0.2556,-0.2644,-0.2644,-0.2644,0,0,-0.1947,-0.2024,-0.2036,-0.2094,-0.2204,-0.2273,-0.2286,-0.2407,-0.2439,-0.2509,-0.2539,-0.2555,-0.2623,-0.259,-0.2593,-0.2591,-0.2576,-0.2612,-0.2516,-0.2524,-0.2517,-0.251,-0.2421,-0.2407,-0.258,-0.258,-0.258,0,-0.1941,-0.1968,-0.2055,-0.2072,-0.2119,-0.2246,-0.2267,-0.2322,-0.2428,-0.245,-0.2496,-0.2588,-0.2587,-0.2554,-0.2534,-0.2574,-0.2567,-0.2528,-0.2518,-0.2511,-0.2505,-0.2416,-0.2401,-0.2578,-0.2578,-0.2579,-0.2579,0,-0.1904,-0.1942,-0.1953,-0.2008,-0.2058,-0.2108,-0.2187,-0.2234,-0.2319,-0.2382,-0.2428,-0.2476,-0.2508,-0.2509,-0.2516,-0.2459,-0.2461,-0.254,-0.252,-0.2494,-0.2401,-0.2386,-0.2575,-0.2576,-0.2576,-0.2577,0,0,-0.1869,-0.192,-0.1928,-0.1957,-0.2039,-0.2086,-0.2095,-0.2159,-0.2199,-0.2281,-0.2319,-0.2323,-0.2381,-0.238,-0.2399,-0.2366,-0.2286,-0.2414,-0.2416,-0.2309,-0.2246,-0.2029,-0.1992,-0.2399,-0.2397,-0.2396,-0.2181,0,-0.1835,-0.1839,-0.1868,-0.1896,-0.1927,-0.2011,-0.202,-0.2083,-0.2172,-0.2236,-0.2266,-0.2331,-0.2321,-0.2369,-0.2323,-0.2341,-0.2254,-0.2331,-0.2299,-0.2294,-0.2095,-0.197,-0.1989,-0.1782,-0.2166,-0.2164,-0.2162,0,-0.1799,-0.1814,-0.1815,-0.1878,-0.1901,-0.1925,-0.2009,-0.2041,-0.2117,-0.2189,-0.223,-0.23,-0.2232,-0.2291,-0.2187,-0.2258,-0.2205,-0.2197,-0.2192,-0.1985,-0.2049,-0.1882,-0.174,-0.2137,-0.2139,-0.2141,-0.2142,0,-0.1755,-0.1788,-0.1789,-0.1808,-0.1878,-0.1903,-0.1961,-0.2039,-0.2063,-0.2172,-0.2193,-0.2218,-0.2191,-0.2194,-0.21,-0.2182,-0.1994,-0.2127,-0.1846,-0.183,-0.1822,-0.1805,-0.2015,-0.2015,-0.2016,-0.2016,-0.2017,0,-0.1717,-0.1735,-0.1783,-0.1796,-0.1845,-0.1898,-0.1965,-0.2031,-0.2083,-0.2066,-0.216,-0.212,-0.2172,-0.2076,-0.2068,-0.1835,-0.1948,-0.1748,-0.1746,-0.1798,-0.1783,-0.2103,-0.2116,-0.2008,-0.201,-0.2012,-0.2013,0,-0.1685,-0.17,-0.1727,-0.1792,-0.1831,-0.1878,-0.1965,-0.1977,-0.2034,-0.2007,-0.2019,-0.1997,-0.1863,-0.1829,-0.1774,-0.1694,-0.1603,-0.1489,-0.147,-0.1465,-0.1446,-0.146,-0.1185,-0.1175,-0.1167,-0.116,-0.1154,0,-0.1682,-0.1681,-0.1736,-0.1754,-0.1796,-0.1875,-0.1898,-0.1974,-0.1957,-0.1894,-0.1831,-0.17,-0.1606,-0.1386,-0.1259,-0.1123,-0.1278,-0.1027,-0.1158,-0.1326,-0.1354,-0.1381,-0.1406,-0.1135,-0.1129,-0.1125,-0.1121,0,-0.1689,-0.1688,-0.1701,-0.1711,-0.1739,-0.1763,-0.1799,-0.1784,-0.1781,-0.1732,-0.1608,-0.1551,-0.126,-0.112,-0.0864,-0.0823,-0.1077,-0.0918,-0.1133,-0.1313,-0.1254,-0.129,-0.1321,-0.1081,-0.1085,-0.1088,-0.109,-0.1092,-0.17,-0.1694,-0.1663,-0.1661,-0.1654,-0.1598,-0.1585,-0.1581,-0.1531,-0.1411,-0.1406,-0.1259,-0.1162,-0.0761,-0.0645,-0.0516,-0.0593,-0.0689,-0.0716,-0.0745,-0.0748,-0.0675,-0.0389,-0.0389,-0.0389,-0.0389,-0.0389,0,-0.1673,-0.1618,-0.1615,-0.1558,-0.1463,-0.1486,-0.1435,-0.1395,-0.1296,-0.1219,-0.1145,-0.0938,-0.0805,-0.0685,-0.041,-0.0297,-0.043,-0.0328,-0.0601,-0.0638,-0.0672,-0.0686,-0.0303,-0.0302,-0.0301,-0.03,0,0,-0.1646,-0.1589,-0.1547,-0.136,-0.1294,-0.1144,-0.1082,-0.1047,-0.0996,-0.0906,-0.0809,-0.0817,-0.0723,-0.0531,-0.0455,-0.0352,-0.0509,-0.0331,-0.0414,-0.0781,-0.0815,-0.0893,-0.0952,0,0,0,0,0]},{"header":{"parameterUnit":"m.s-1","parameterCategory":2,"la1":30.2991,"la2":30.254,"lo1":-89.0895,"lo2":-89.0444,"dy":0.0017,"dx":0.0017,"nx":28,"ny":28,"refTime":"2024-07-31T21:00:00:Z","depth":"2","parameterNumber":3,"parameterNumberName":"V-component_of_CURRENTS"},"data":[0,0,0,0,0,0,0,0,0,0,0,0,0,0,0,0,0,0,0,0,0,0,0,0,0,0,0,0,0,0,0,0,0,0,0,0,0,0,0,0,0,0,0,0,0,0,0,0,0,0,0,0,0,0,0,0,0,0,0.0107,0.0108,0,0.0277,0.0279,0.0282,0.0369,0.0368,0.0368,0.0367,0.0584,0.059,0.0596,0,0,0,0,0,0,0,0,0,0,0,0,0,0.0021,0.0022,0.0106,0.0108,0.0109,0.0276,0.0279,0.0282,0.0369,0.0368,0.0368,0.0367,0.0582,0.0589,0.0597,0,0,0,0,0,0,0,0,0,0,0,0,0,0.0118,0.0022,0.0106,0.0167,0.0174,0.0276,0.028,0.0283,0.0369,0.0368,0.0367,0.0367,0.0579,0.0589,0.0598,0.0675,0,0,0.0627,0.0631,0,0,0,0,0,0,0,0,0.0112,0.0122,0.0157,0.0163,0.0171,0.0294,0.0328,0.0414,0.0369,0.0303,0.0367,0.0366,0.0487,0.0504,0.0548,0.0685,0.0694,0.0628,0.0634,0.0638,0.064,0,0,0,0,0,0,0,0.0105,0.0116,0.0182,0.0158,0.0167,0.0242,0.0254,0.0346,0.0405,0.0309,0.0314,0.0321,0.0492,0.0539,0.0554,0.0697,0.0628,0.0636,0.0642,0.0646,0.0896,0.0897,0,0,0,0,0,0,0.0061,0.0109,0.0176,0.0186,0.013,0.0243,0.0257,0.0262,0.0403,0.0421,0.0321,0.0324,0.0523,0.0543,0.0562,0.0602,0.0638,0.0646,0.0652,0.0895,0.0896,0.0897,0,0,0,0,0,0,0.0059,0.0066,0.0169,0.0146,0.0163,0.0243,0.0249,0.0265,0.0295,0.0411,0.0431,0.0331,0.0523,0.0548,0.064,0.0613,0.0651,0.0659,0.0894,0.0896,0.0897,0.072,0,0,0,0,0,0,0.0056,0.0064,0.0063,0.0142,0.0162,0.0197,0.025,0.0269,0.0299,0.0304,0.0427,0.0447,0.0524,0.0625,0.0649,0.0627,0.0667,0.0893,0.0895,0.0896,0.0725,0.0715,0.0707,0,0,0,0,0,0.0052,0.0045,0.0062,0.007,0.0154,0.0195,0.0212,0.0273,0.0299,0.0301,0.0401,0.0442,0.0653,0.0634,0.0662,0.0641,0.0892,0.0894,0.0896,0.0729,0.0717,0.0707,0,0,0,0,0,0,0.0015,0.0055,0.0075,0.0083,0.0118,0.0205,0.0222,0.026,0.0343,0.0358,0.0464,0.0492,0.0571,0.0641,0.0617,0.0725,0.0776,0.0784,0.0639,0.063,0.0621,0.0552,0.0675,0,0,0,0,0,0.0002,0.0004,0.0052,0.0058,0.007,0.0144,0.0172,0.0209,0.0286,0.0321,0.0399,0.0503,0.0608,0.0641,0.0749,0.08,0.0825,0.0807,0.0798,0.079,0.0757,0.0797,0.0786,0.0904,0.0904,0.0904,0,0,-0.0008,0.0012,0.0017,0.005,0.0092,0.0101,0.016,0.019,0.0202,0.0335,0.0381,0.0487,0.0625,0.0692,0.0729,0.0735,0.0766,0.0792,0.0783,0.0755,0.0797,0.0785,0.0774,0.0906,0.0906,0.0905,0,0,-0.0035,-0.0015,-0.0024,-0.0006,0.0031,0.0071,0.0064,0.0131,0.0162,0.0234,0.0333,0.04,0.0562,0.0616,0.0681,0.0687,0.0738,0.0739,0.0609,0.0647,0.0636,0.0626,0.0604,0.0594,0.0708,0.0707,0.0707,0,-0.0047,-0.0053,-0.0019,-0.0027,-0.0019,0.0041,0.0032,0.0075,0.0161,0.0184,0.0228,0.0432,0.0518,0.0588,0.0579,0.0656,0.0681,0.0626,0.0627,0.0619,0.0612,0.0592,0.0583,0.0699,0.07,0.0701,0.0702,0,-0.008,-0.0087,-0.0093,-0.0089,-0.0078,-0.0075,-0.0034,-0.0017,0.0036,0.0087,0.0172,0.0295,0.04,0.0436,0.0509,0.0506,0.0538,0.0624,0.063,0.0588,0.0572,0.0565,0.0687,0.069,0.0693,0.0695,0,0,-0.0103,-0.0114,-0.0116,-0.013,-0.0112,-0.0106,-0.0104,-0.0078,-0.0072,0.0008,0.0023,0.0159,0.0209,0.0281,0.0367,0.0367,0.0312,0.0446,0.0452,0.0378,0.0354,0.0413,0.0412,0.0406,0.0405,0.0404,0.0345,0,-0.0136,-0.0173,-0.0167,-0.02,-0.0216,-0.0185,-0.0189,-0.0161,-0.0107,-0.0083,0.0008,0.0078,0.0158,0.0197,0.0211,0.0307,0.0295,0.0317,0.0446,0.0447,0.047,0.0408,0.0484,0.0444,0.0339,0.0338,0.0337,0,-0.0169,-0.0192,-0.0235,-0.0262,-0.0266,-0.028,-0.028,-0.0271,-0.0229,-0.0187,-0.0132,-0.0045,-0.004,0.0056,0.0123,0.014,0.0217,0.0277,0.028,0.0388,0.0496,0.0486,0.0437,0.0328,0.0328,0.0329,0.033,0,-0.0203,-0.0239,-0.0277,-0.0286,-0.0306,-0.0323,-0.0329,-0.0302,-0.0303,-0.027,-0.0266,-0.0195,-0.0176,-0.0074,0.0043,0.0082,0.0122,0.0209,0.0325,0.0328,0.0443,0.0459,0.0254,0.0254,0.0255,0.0255,0.0255,0,-0.0241,-0.0274,-0.0299,-0.0322,-0.0373,-0.0367,-0.0404,-0.0394,-0.0386,-0.0389,-0.033,-0.032,-0.0204,-0.0146,-0.002,0.0109,0.0079,0.0265,0.0318,0.0384,0.0396,0.0359,0.0372,0.0253,0.0253,0.0253,0.0254,0,-0.0279,-0.0291,-0.0343,-0.0378,-0.0393,-0.043,-0.0472,-0.0482,-0.0482,-0.0491,-0.0497,-0.0455,-0.0388,-0.0263,-0.0125,0.0016,0.0147,0.0217,0.0249,0.0308,0.0328,0.0333,0.0299,0.0301,0.0302,0.0303,0.0304,0,-0.0308,-0.0335,-0.0389,-0.042,-0.0443,-0.0493,-0.0516,-0.0527,-0.0532,-0.0549,-0.0551,-0.053,-0.0468,-0.0292,-0.0025,0.0174,0.0152,0.033,0.0431,0.0278,0.0333,0.0336,0.0339,0.0489,0.0491,0.0493,0.0495,0,-0.0371,-0.0381,-0.0422,-0.0473,-0.0512,-0.0556,-0.0587,-0.061,-0.0604,-0.0615,-0.0604,-0.0576,-0.0386,-0.0126,0.012,0.0253,0.0301,0.0377,0.0217,0.0482,0.0458,0.0512,0.0508,0.0512,0.051,0.0509,0.0508,0.0507,-0.0418,-0.0454,-0.0485,-0.0532,-0.0568,-0.0589,-0.0606,-0.0616,-0.0627,-0.0593,-0.0586,-0.046,-0.0254,0.0177,0.0313,0.0466,0.0483,0.0541,0.0535,0.0526,0.0575,0.0558,0.0634,0.0633,0.0632,0.0632,0.0631,0,-0.0467,-0.0488,-0.0537,-0.058,-0.0602,-0.0607,-0.062,-0.0613,-0.0591,-0.0518,-0.0465,-0.0192,0.0084,0.0248,0.0586,0.0728,0.0705,0.0663,0.065,0.0637,0.0624,0.0675,0.0761,0.0761,0.076,0.076,0,0,-0.0494,-0.054,-0.0551,-0.059,-0.0605,-0.06,-0.0589,-0.0578,-0.0509,-0.0419,-0.0259,-0.0063,0.0182,0.0423,0.0574,0.0687,0.0594,0.066,0.0568,0.0526,0.0509,0.0594,0.0666,0,0,0,0,0]}],[{"header":{"parameterUnit":"m.s-1","parameterCategory":2,"la1":30.2991,"la2":30.254,"lo1":-89.0895,"lo2":-89.0444,"dy":0.0017,"dx":0.0017,"nx":28,"ny":28,"refTime":"2024-07-31T21:00:00:Z","depth":"4","parameterNumber":2,"parameterNumberName":"U-component_of_CURRENTS"},"data":[0,0,0,0,0,0,0,0,0,0,0,0,0,0,0,0,0,0,0,0,0,0,0,0,0,0,0,0,0,0,0,0,0,0,0,0,0,0,0,0,0,0,0,0,0,0,0,0,0,0,0,0,0,0,0,0,0,0,-0.1264,-0.1265,0,-0.1306,-0.1306,-0.1307,-0.1319,-0.1319,-0.1319,-0.1319,-0.1376,-0.1378,-0.1379,0,0,0,0,0,0,0,0,0,0,0,0,0,-0.1204,-0.1205,-0.1264,-0.1265,-0.1265,-0.1306,-0.1306,-0.1307,-0.1319,-0.1319,-0.1319,-0.1319,-0.1375,-0.1377,-0.138,0,0,0,0,0,0,0,0,0,0,0,0,0,-0.1236,-0.1206,-0.1264,-0.1276,-0.1278,-0.1306,-0.1306,-0.1307,-0.1319,-0.1319,-0.1319,-0.1318,-0.1375,-0.1377,-0.138,-0.1402,0,0,-0.1388,-0.1389,0,0,0,0,0,0,0,0,-0.1235,-0.1239,-0.1274,-0.1275,-0.1277,-0.1307,-0.1306,-0.1339,-0.1319,-0.1303,-0.1319,-0.1318,-0.1355,-0.1359,-0.1367,-0.1404,-0.1407,-0.1388,-0.1389,-0.1391,-0.1391,0,0,0,0,0,0,0,-0.1232,-0.1237,-0.128,-0.1275,-0.1277,-0.1283,-0.1287,-0.1313,-0.133,-0.1305,-0.1306,-0.1311,-0.1356,-0.1365,-0.1369,-0.1408,-0.1388,-0.139,-0.1392,-0.1393,-0.1504,-0.1505,0,0,0,0,0,0,-0.1228,-0.1235,-0.1279,-0.1282,-0.1255,-0.1284,-0.1289,-0.1298,-0.133,-0.1334,-0.1311,-0.1311,-0.136,-0.1366,-0.1371,-0.1442,-0.1391,-0.1393,-0.1394,-0.1502,-0.1504,-0.1505,0,0,0,0,0,0,-0.1226,-0.1231,-0.1277,-0.1259,-0.1265,-0.1285,-0.1295,-0.1299,-0.1323,-0.1334,-0.1339,-0.1333,-0.136,-0.1367,-0.141,-0.1443,-0.1394,-0.1396,-0.1501,-0.1503,-0.1505,-0.1558,0,0,0,0,0,0,-0.1224,-0.1231,-0.1248,-0.1259,-0.1266,-0.1303,-0.1296,-0.13,-0.1325,-0.1326,-0.1355,-0.1359,-0.1361,-0.1406,-0.1412,-0.1445,-0.1398,-0.1499,-0.1502,-0.1504,-0.1554,-0.1561,-0.1567,0,0,0,0,0,-0.1222,-0.1243,-0.1248,-0.1254,-0.1285,-0.1304,-0.1309,-0.1321,-0.1327,-0.1341,-0.1364,-0.1359,-0.1427,-0.1409,-0.1416,-0.1451,-0.1498,-0.1501,-0.1504,-0.1551,-0.156,-0.1567,0,0,0,0,0,0,-0.1226,-0.1247,-0.1253,-0.128,-0.1294,-0.1306,-0.1328,-0.1334,-0.1363,-0.1372,-0.138,-0.1386,-0.1429,-0.1437,-0.1417,-0.149,-0.1461,-0.1465,-0.1494,-0.1502,-0.1509,-0.1494,-0.1401,0,0,0,0,0,-0.1235,-0.1259,-0.1272,-0.1296,-0.1306,-0.1321,-0.1336,-0.1343,-0.1364,-0.1378,-0.1394,-0.142,-0.1447,-0.1471,-0.1487,-0.1538,-0.1517,-0.1563,-0.157,-0.1576,-0.1569,-0.157,-0.1576,-0.1516,-0.1516,-0.1516,0,0,-0.1244,-0.1259,-0.1273,-0.1299,-0.1315,-0.1335,-0.133,-0.1358,-0.1381,-0.1381,-0.1426,-0.1439,-0.1462,-0.1508,-0.153,-0.1523,-0.1583,-0.158,-0.1584,-0.1574,-0.1574,-0.158,-0.1585,-0.1518,-0.1518,-0.1517,0,0,-0.1262,-0.1288,-0.1308,-0.1323,-0.1349,-0.1361,-0.1372,-0.1393,-0.1413,-0.1454,-0.1459,-0.1493,-0.1537,-0.1559,-0.1576,-0.1633,-0.1608,-0.1645,-0.1682,-0.1684,-0.1689,-0.1692,-0.1672,-0.1673,-0.166,-0.166,-0.166,0,-0.1271,-0.1298,-0.1317,-0.1336,-0.1356,-0.1374,-0.1397,-0.1422,-0.1454,-0.1475,-0.1474,-0.1537,-0.1559,-0.1616,-0.1637,-0.1648,-0.1634,-0.165,-0.1691,-0.1695,-0.1697,-0.1676,-0.1676,-0.1663,-0.1663,-0.1662,-0.1662,0,-0.1292,-0.1322,-0.1338,-0.137,-0.1394,-0.142,-0.1449,-0.148,-0.1506,-0.1523,-0.1577,-0.1604,-0.1637,-0.1661,-0.1672,-0.1716,-0.1693,-0.1689,-0.1667,-0.1706,-0.1681,-0.1681,-0.1667,-0.1666,-0.1665,-0.1665,0,0,-0.1284,-0.1342,-0.1349,-0.137,-0.1416,-0.1433,-0.1485,-0.1528,-0.1557,-0.1596,-0.1631,-0.1692,-0.1696,-0.1715,-0.1735,-0.1754,-0.177,-0.1739,-0.1737,-0.1711,-0.1758,-0.1626,-0.1613,-0.1774,-0.1774,-0.1775,-0.1731,0,-0.1294,-0.1338,-0.1368,-0.1414,-0.1437,-0.1477,-0.1518,-0.1561,-0.1597,-0.1634,-0.1676,-0.171,-0.1722,-0.1741,-0.1764,-0.1763,-0.1773,-0.1781,-0.173,-0.1728,-0.16,-0.1609,-0.1776,-0.1731,-0.1731,-0.1731,-0.1731,0,-0.1296,-0.1328,-0.1377,-0.1435,-0.145,-0.1483,-0.1547,-0.1584,-0.1642,-0.1668,-0.1709,-0.1727,-0.1771,-0.1767,-0.1782,-0.1786,-0.1774,-0.1771,-0.1769,-0.1623,-0.1595,-0.1685,-0.173,-0.173,-0.173,-0.173,-0.173,0,-0.1268,-0.1332,-0.1375,-0.1394,-0.1462,-0.1496,-0.1535,-0.1596,-0.1621,-0.1683,-0.1693,-0.1746,-0.1751,-0.1767,-0.1761,-0.1773,-0.1754,-0.1765,-0.1634,-0.1624,-0.1733,-0.173,-0.1763,-0.1763,-0.1764,-0.1764,-0.1764,0,-0.1252,-0.1287,-0.1367,-0.1385,-0.143,-0.1485,-0.153,-0.1573,-0.1624,-0.1629,-0.17,-0.1687,-0.1749,-0.1745,-0.1755,-0.1676,-0.1743,-0.1624,-0.1601,-0.1757,-0.1757,-0.1732,-0.173,-0.1762,-0.1762,-0.1763,-0.1763,0,-0.1204,-0.1262,-0.1308,-0.139,-0.1415,-0.1444,-0.1509,-0.1529,-0.1588,-0.1591,-0.1605,-0.1637,-0.1602,-0.1647,-0.1648,-0.1627,-0.1598,-0.1557,-0.1703,-0.1692,-0.147,-0.147,-0.1397,-0.1392,-0.1388,-0.1384,-0.1381,0,-0.1179,-0.1202,-0.1292,-0.1312,-0.135,-0.1401,-0.1426,-0.1499,-0.1505,-0.1528,-0.1506,-0.1495,-0.15,-0.1393,-0.1458,-0.1451,-0.1447,-0.1444,-0.1474,-0.1445,-0.1431,-0.1439,-0.1445,-0.1374,-0.1373,-0.1372,-0.1371,0,-0.1123,-0.117,-0.1204,-0.1242,-0.1277,-0.1303,-0.134,-0.1332,-0.1383,-0.1451,-0.1356,-0.133,-0.1274,-0.127,-0.127,-0.1277,-0.146,-0.1399,-0.1409,-0.1436,-0.1417,-0.1409,-0.142,-0.1356,-0.1358,-0.1359,-0.136,0,-0.1077,-0.1084,-0.113,-0.1148,-0.1187,-0.1173,-0.1216,-0.1197,-0.1207,-0.1242,-0.1192,-0.1187,-0.1217,-0.1173,-0.1176,-0.1166,-0.1159,-0.117,-0.1192,-0.1209,-0.1173,-0.1122,-0.0936,0,0,0,0,0,-0.1018,-0.101,-0.1025,-0.1031,-0.1064,-0.1077,-0.1133,-0.1176,-0.1227,-0.1121,-0.1153,-0.109,-0.1042,-0.105,-0.1,-0.111,-0.1185,-0.1053,-0.1215,-0.1273,-0.129,-0.1269,0,0,0,0,0,0,-0.0975,-0.0992,-0.0988,-0.092,-0.0899,-0.0912,-0.0943,-0.0987,-0.0941,-0.0999,-0.0969,-0.1027,-0.0995,-0.1027,-0.0966,-0.0977,-0.1063,-0.1073,-0.1071,-0.1263,-0.1279,-0.1293,-0.1276,0,0,0,0,0]},{"header":{"parameterUnit":"m.s-1","parameterCategory":2,"la1":30.2991,"la2":30.254,"lo1":-89.0895,"lo2":-89.0444,"dy":0.0017,"dx":0.0017,"nx":28,"ny":28,"refTime":"2024-07-31T21:00:00:Z","depth":"4","parameterNumber":3,"parameterNumberName":"V-component_of_CURRENTS"},"data":[0,0,0,0,0,0,0,0,0,0,0,0,0,0,0,0,0,0,0,0,0,0,0,0,0,0,0,0,0,0,0,0,0,0,0,0,0,0,0,0,0,0,0,0,0,0,0,0,0,0,0,0,0,0,0,0,0,0,-0.0004,-0.0004,0,0.0014,0.0014,0.0014,0.0047,0.0048,0.0048,0.0049,0.0109,0.011,0.0111,0,0,0,0,0,0,0,0,0,0,0,0,0,-0.0012,-0.0012,-0.0004,-0.0004,-0.0004,0.0013,0.0014,0.0014,0.0047,0.0048,0.0048,0.0049,0.0108,0.0109,0.0111,0,0,0,0,0,0,0,0,0,0,0,0,0,-0.0002,-0.0012,-0.0004,0.0014,0.0016,0.0013,0.0014,0.0014,0.0047,0.0048,0.0048,0.0049,0.0108,0.0109,0.0111,0.0105,0,0,0.0116,0.0117,0,0,0,0,0,0,0,0,-0.0002,-0.0001,0.0011,0.0013,0.0015,0.0028,0.0033,0.0046,0.0047,0.0036,0.0049,0.0049,0.0084,0.0088,0.009,0.0108,0.0111,0.0116,0.0117,0.0118,0.0118,0,0,0,0,0,0,0,-0.0003,-0.0002,0.0004,0.0011,0.0013,0.002,0.0022,0.0036,0.0057,0.0037,0.0039,0.0039,0.0086,0.0089,0.0092,0.0112,0.0116,0.0118,0.0119,0.0119,0.0134,0.0134,0,0,0,0,0,0,-0.0008,-0.0003,0.0004,0.0005,0.0007,0.0019,0.0022,0.0024,0.0056,0.0061,0.0038,0.004,0.0085,0.009,0.0094,0.0105,0.0118,0.0119,0.012,0.0135,0.0134,0.0133,0,0,0,0,0,0,-0.0008,-0.0008,0.0003,0.0,0.0002,0.0018,0.002,0.0024,0.0029,0.0056,0.0063,0.004,0.0086,0.0092,0.0105,0.0107,0.012,0.0122,0.0135,0.0134,0.0134,0.0115,0,0,0,0,0,0,-0.0009,-0.0008,-0.001,0.0,0.0002,-0.0004,0.0019,0.0023,0.0027,0.003,0.006,0.0066,0.0087,0.0102,0.0106,0.0109,0.0123,0.0136,0.0135,0.0134,0.0117,0.0114,0.0112,0,0,0,0,0,-0.0009,-0.0015,-0.001,-0.0009,-0.0,-0.0005,-0.0003,0.0012,0.0026,0.0021,0.0044,0.0065,0.0098,0.0103,0.0108,0.0112,0.0137,0.0135,0.0134,0.0118,0.0115,0.0112,0,0,0,0,0,0,-0.002,-0.0013,-0.0006,-0.0009,-0.001,0.0,-0.0002,0.0008,0.0021,0.0028,0.0058,0.0065,0.0072,0.0091,0.0095,0.011,0.012,0.012,0.0106,0.0103,0.0101,0.01,0.0124,0,0,0,0,0,-0.0024,-0.0025,-0.0021,-0.0025,-0.0025,-0.0015,-0.0014,-0.0006,0.0007,0.0014,0.0032,0.0054,0.0069,0.0086,0.0093,0.0108,0.0144,0.0111,0.0109,0.0107,0.0108,0.0184,0.019,0.0129,0.0129,0.0129,0,0,-0.003,-0.0026,-0.0027,-0.0027,-0.0023,-0.0033,-0.0012,-0.0015,-0.0018,0.0018,0.002,0.0038,0.0066,0.0076,0.0083,0.0097,0.0136,0.0105,0.0103,0.0106,0.0184,0.019,0.0196,0.0128,0.0128,0.0128,0,0,-0.0046,-0.0038,-0.0048,-0.0051,-0.0052,-0.0047,-0.005,-0.0045,-0.0036,-0.0035,-0.0009,0.0017,0.0028,0.0062,0.0079,0.0068,0.011,0.0061,0.0064,0.0138,0.0145,0.0151,0.0182,0.0192,0.0073,0.0073,0.0073,0,-0.0053,-0.0064,-0.0053,-0.0066,-0.0072,-0.0056,-0.0073,-0.0064,-0.0056,-0.0046,-0.004,0.0001,0.0027,0.0064,0.006,0.0066,0.0098,0.0077,0.0138,0.0145,0.0152,0.0183,0.0193,0.0072,0.0072,0.0073,0.0073,0,-0.0079,-0.0089,-0.0096,-0.0105,-0.0111,-0.0123,-0.0115,-0.0115,-0.0104,-0.0087,-0.0062,-0.0021,0.001,0.0021,0.0039,0.0092,0.0094,0.0119,0.0152,0.0158,0.0189,0.02,0.0071,0.0071,0.0071,0.0072,0,0,-0.0092,-0.0111,-0.0114,-0.0129,-0.0134,-0.0144,-0.0147,-0.0143,-0.0138,-0.0112,-0.0093,-0.005,-0.0019,0.0002,0.0038,0.0108,0.0178,0.0131,0.0136,0.0171,0.0314,0.0278,0.0287,0.0221,0.0223,0.0225,0.0309,0,-0.0117,-0.0152,-0.0151,-0.0186,-0.0206,-0.0195,-0.0203,-0.0192,-0.0171,-0.015,-0.0083,-0.006,-0.0027,-0.0008,0.0067,0.0142,0.021,0.0151,0.0295,0.0298,0.0275,0.03,0.0233,0.0317,0.032,0.0322,0.0324,0,-0.0143,-0.0165,-0.0204,-0.0231,-0.0238,-0.0253,-0.0256,-0.0258,-0.0215,-0.0197,-0.0142,-0.0099,-0.0015,0.0018,0.0175,0.0134,0.0219,0.0289,0.0295,0.0278,0.0285,0.0316,0.0345,0.0343,0.0341,0.034,0.0339,0,-0.0165,-0.0201,-0.0235,-0.0245,-0.0271,-0.0283,-0.0291,-0.0269,-0.0271,-0.0218,-0.0211,-0.0105,-0.0065,0.0073,0.0186,0.0195,0.0355,0.0391,0.044,0.0436,0.0453,0.0446,0.0521,0.0521,0.0521,0.052,0.052,0,-0.0192,-0.0222,-0.0249,-0.027,-0.0311,-0.0311,-0.0336,-0.0328,-0.0308,-0.0308,-0.0233,-0.0213,-0.0044,0.0052,0.0182,0.0323,0.0355,0.0442,0.0467,0.0437,0.0427,0.046,0.0452,0.0524,0.0523,0.0522,0.0522,0,-0.0215,-0.0231,-0.0279,-0.0313,-0.0325,-0.0354,-0.0384,-0.0396,-0.0375,-0.0371,-0.0359,-0.0282,-0.0156,-0.0004,0.0202,0.0295,0.0449,0.0492,0.0407,0.0425,0.0485,0.0474,0.0581,0.0581,0.058,0.058,0.058,0,-0.0233,-0.0256,-0.0311,-0.0346,-0.0366,-0.0404,-0.0433,-0.043,-0.0438,-0.0418,-0.0416,-0.0319,-0.0248,-0.0006,0.0163,0.0401,0.0438,0.0505,0.0543,0.0483,0.0497,0.0487,0.0477,0.0579,0.0579,0.0579,0.0579,0,-0.027,-0.0286,-0.0326,-0.0392,-0.0435,-0.0481,-0.0512,-0.0523,-0.0516,-0.05,-0.0456,-0.0339,-0.0211,-0.0017,0.0144,0.0322,0.0462,0.0504,0.0507,0.0544,0.0483,0.0495,0.0485,0.0578,0.0578,0.0578,0.0578,0,-0.0299,-0.0336,-0.0385,-0.0441,-0.0499,-0.0542,-0.0553,-0.0556,-0.0559,-0.0516,-0.0507,-0.0368,-0.0283,-0.006,0.0095,0.0254,0.0324,0.039,0.04,0.0404,0.0327,0.0222,0.0266,0,0,0,0,0,-0.0329,-0.0372,-0.0431,-0.0499,-0.0552,-0.0577,-0.0603,-0.0601,-0.0587,-0.0558,-0.0526,-0.0404,-0.0182,-0.0095,0.0065,0.0109,0.0351,0.0302,0.0432,0.0573,0.0574,0.0512,0,0,0,0,0,0,-0.0357,-0.0414,-0.044,-0.0528,-0.0573,-0.0631,-0.0643,-0.0631,-0.0599,-0.0566,-0.0448,-0.0374,-0.0156,-0.0279,0.006,0.0107,0.0211,0.0411,0.0414,0.0572,0.0573,0.0574,0.0511,0,0,0,0,0]}]]